Lancaster, CA

1:46 PM PST on February 23, 2017 (GMT -0800)
Sandberg

Weather History for KSDB - January, 2014

Change the Weather History Date:

Friday, January 10, 2014

  Actual Average Record
Temperature  
Mean Temperature 53 °F 43 °F  
Max Temperature 64 °F 49 °F 64 °F (1990)
Min Temperature 41 °F 37 °F 12 °F (1949)
Degree Days  
Heating Degree Days 12 22  
Month to date heating degree days 123 223  
Since 1 July heating degree days 1199 1704  
Cooling Degree Days 0 0  
Month to date cooling degree days 0 0  
Year to date cooling degree days 0 0  
Growing Degree Days 2 (Base 50)    
Moisture  
Dew Point 29 °F    
Average Humidity 43    
Maximum Humidity 65    
Minimum Humidity 20    
Precipitation  
Precipitation 0.00 in 0.10 in 2.53 in (2001)
Month to date precipitation 0.00 1.03  
Year to date precipitation 0.00 1.03  
Since 1 July precipitation 0.78  
Sea Level Pressure  
Sea Level Pressure 30.13 in    
Wind  
Wind Speed 15 mph (NNW)    
Max Wind Speed 36 mph    
Max Gust Speed 43 mph    
Visibility 10 miles    
Events      
T = Trace of Precipitation, MM = Missing Value Source: NWS Daily Summary

Daily Weather History Graph

Daily Weather History Graph

Search for Another Location

Airport or City:

Trip Planner

Search our weather history database for the weather conditions in past years. The results will help you decide how hot, cold, wet, or windy it might be!

Date:

Astronomy

Jan. 10, 2014 Rise Set
Actual Time 7:02 AM PST 5:02 PM PST
Civil Twilight 6:35 AM PST 5:30 PM PST
Nautical Twilight 6:03 AM PST 6:01 PM PST
Astronomical Twilight 5:33 AM PST 6:31 PM PST
Moon 1:06 PM PST (1/10) 2:18 AM PST (1/10)
Length of Visible Light 10h 55m
Length of Day
9h 59m
Waxing Gibbous, 76% of the Moon is Illuminated
Jan 10
Waxing Gibbous
Jan 15
Full
Jan 23
Last Quarter
Jan 30
New
Feb 6
First Quarter

Hourly Weather History & Observations

Time (PST) Temp. Windchill Dew Point Humidity Pressure Visibility Wind Dir Wind Speed Gust Speed Precip Events Conditions
12:48 AM 41.0 °F 32.5 °F 30.9 °F 67% 30.14 in 10.0 mi NNW 17.3 mph 32.2 mph N/A   Clear
1:48 AM 46.0 °F 37.8 °F 28.9 °F 51% 30.13 in 10.0 mi North 23.0 mph - N/A   Clear
2:48 AM 46.0 °F 37.2 °F 30.0 °F 54% 30.12 in 10.0 mi NNW 26.5 mph - N/A   Clear
3:48 AM 46.9 °F - 30.9 °F 54% 30.12 in 10.0 mi NNW 20.7 mph - N/A   Clear
4:48 AM 46.9 °F - 30.9 °F 54% 30.12 in 10.0 mi NNW 26.5 mph - N/A   Clear
5:48 AM 46.9 °F - 32.0 °F 56% 30.14 in 10.0 mi NNE 8.1 mph 17.3 mph N/A   Clear
6:48 AM 50.0 °F - 30.9 °F 48% 30.14 in 10.0 mi NNW 19.6 mph 27.6 mph N/A   Clear
7:48 AM 53.1 °F - 30.0 °F 41% 30.15 in 10.0 mi NW 19.6 mph 36.8 mph N/A   Clear
8:48 AM 53.1 °F - 32.0 °F 45% 30.19 in 10.0 mi North - - N/A   Clear
9:48 AM 54.0 °F - 32.0 °F 43% 30.19 in 10.0 mi NNW 17.3 mph - N/A   Clear
12:48 PM 63.0 °F - 25.0 °F 24% 30.10 in 10.0 mi North 18.4 mph 29.9 mph N/A   Clear
1:48 PM 64.0 °F - 23.0 °F 21% 30.08 in 10.0 mi NNW 9.2 mph 20.7 mph N/A   Clear
2:48 PM 57.9 °F - 25.0 °F 28% 30.06 in 10.0 mi NNW 28.8 mph 38.0 mph N/A   Clear
3:48 PM 54.0 °F - 28.9 °F 38% 30.09 in 10.0 mi Variable 3.5 mph - N/A   Clear
4:48 PM 53.1 °F - 30.0 °F 41% 30.09 in 10.0 mi ESE 6.9 mph - N/A   Clear
5:48 PM 54.0 °F - 27.0 °F 35% 30.11 in 10.0 mi Calm Calm - N/A   Clear
6:48 PM 50.0 °F - 28.0 °F 43% 30.13 in 10.0 mi Variable 6.9 mph 18.4 mph N/A   Clear
7:48 PM 48.0 °F - 30.9 °F 52% 30.12 in 10.0 mi North 24.2 mph - N/A   Clear
8:48 PM 48.0 °F - 28.9 °F 48% 30.14 in 10.0 mi NE 8.1 mph - N/A   Clear
9:48 PM 50.0 °F - 28.9 °F 44% 30.14 in 10.0 mi NNW 20.7 mph - N/A   Clear
10:48 PM 55.0 °F - 25.0 °F 31% 30.13 in 10.0 mi Variable 6.9 mph 19.6 mph N/A   Clear
11:48 PM 55.0 °F - 25.0 °F 31% 30.12 in 10.0 mi North 5.8 mph - N/A   Clear